Location: ????????
(55.7667°N, 37.4833°E)
Time: 06:31:14
(UTC+00:00)

SL-24 R/B - Pass Details

Date: 19 May 2025
Orbit: 623 x 1072 km, 98.1° (Epoch: 15 June)

Event Time Altitude Azimuth Distance (km) Brightness Sun altitude
Rises 19:19:45 0° 16° (NNE) 2,930 8.2 -9.7°
Reaches altitude 10° 19:21:57 10° 20° (NNE) 2,010 7.3 -9.8°
Maximum altitude 19:26:15 67° 103° (ESE) 688 4.1 -10.1°
Drops below altitude 10° 19:30:39 10° 187° (S) 2,060 6.2 -10.4°
Enters shadow 19:30:55 - 187° (S) 2,167 6.4 -10.4°
